Regional Weather Roundup
Issued by NWS

Home | Current Version | Previous Version | Text Only | Print | Product List | Glossary Off
Versions: 1 2 3 4 5 6 7 8 9 10 11 12 13 14 15 16 17 18 19 20 21 22 23 24 25 26 27 28 29 30 31 32 33 34 35 36 37 38 39 40 41 42 43 44 45 46 47 48 49 50

000
ASUS43 KOAX 271010
RWRNE

WEATHER ROUNDUP FOR NEBRASKA
NATIONAL WEATHER SERVICE OMAHA NE
500 AM CDT TUE JUN 27 2017

NOTES: SATELLITE DATA IS BEING USED TO AUGMENT CLOUD COVER ABOVE
       12000 FEET.
       "FAIR" INDICATES FEW OR NO CLOUDS BELOW 12,000 FEET WITH NO
       SIGNIFICANT WEATHER AND/OR OBSTRUCTIONS TO VISIBILITY.

  * THESE STATIONS DO NOT REPORT WEATHER SUCH AS RAIN...SNOW OR FOG.

NEZ001>004-019>022-054>056-271100-
NEBRASKA PANHANDLE

CITY           SKY/WX    TMP DP  RH WIND       PRES   REMARKS
SCOTTSBLUFF    PTCLDY    63  54  72 SE15      29.98F
ALLIANCE       CLEAR     58  53  84 S15G25    30.00F
CHADRON        CLEAR     64  53  67 S31G44    29.86F
GORDON         FAIR      59  49  68 S8        29.98F
KIMBALL        CLOUDY    59  57  95 S16G23    30.03F
SIDNEY         MOCLDY    59  54  83 S16G25    30.04F
$$

NEZ057>060-069>072-079>082-271100-
SOUTHWEST NEBRASKA

CITY           SKY/WX    TMP DP  RH WIND       PRES   REMARKS
NORTH PLATTE   MOCLDY    61  58  90 SE14G21   30.05F
IMPERIAL       CLOUDY    61  57  87 S20G25    30.04F
LEXINGTON      PTCLDY    59  57  93 SE9       30.07F
MCCOOK         CLEAR     60  59  96 SE9       30.05F
OGALLALA       CLOUDY    62  58  87 SE9       30.04F
$$

NEZ005>010-023>029-035>040-094-271100-
NORTH CENTRAL NEBRASKA

CITY           SKY/WX    TMP DP  RH WIND       PRES   REMARKS
VALENTINE      CLEAR     58  47  66 S17       30.01F
AINSWORTH      PTCLDY    55  50  83 S15       30.03F
BROKEN BOW     CLEAR     56  54  93 S6        30.07F
O`NEILL        CLOUDY    49  45  84 S7        30.07F
ORD            CLEAR     54  51  90 CALM      30.07F
THEDFORD       CLEAR     57  55  91 SE9       30.05F
$$

NEZ041-046>049-061>064-073>077-083>087-271100-
SOUTH CENTRAL NEBRASKA

CITY           SKY/WX    TMP DP  RH WIND       PRES   REMARKS
GRAND ISLAND   CLOUDY    58  58 100 SE9       30.10F FOG
AURORA         FOG       57  57 100 S8        30.10F VSB 3/4
HASTINGS       MOCLDY    58  56  93 SE9       30.11F FOG
HEBRON         FOG       55  55  99 CALM      30.10F VSB 1/4
HOLDREGE       CLEAR     57  56  95 SE10      30.07F
KEARNEY *      CLOUDY    57  54  88 SE10      30.09F
YORK           FOG       55  55 100 S5        30.11F VSB 1/4
$$

NEZ011>018-030>034-042>045-271100-
NORTHEAST NEBRASKA

CITY           SKY/WX    TMP DP  RH WIND       PRES   REMARKS
NORFOLK        CLEAR     46  42  86 SE7       30.09F
ALBION         CLEAR     45  42  87 CALM      30.10F
BLAIR          CLEAR     56  49  78 CALM      30.12S
FREMONT        CLEAR     54  50  86 CALM      30.12S
TEKAMAH        CLEAR     49  44  83 CALM      30.12F
WAYNE          CLEAR     48  45  89 SE5       30.10F
$$

NEZ050>053-065>068-078-088>093-271100-
SOUTHEAST NEBRASKA

CITY           SKY/WX    TMP DP  RH WIND       PRES   REMARKS
LINCOLN        MOCLDY    53  51  93 NE3       30.12S
OMAHA EPPLEY   CLEAR     57  48  72 CALM      30.12F
BEATRICE       CLEAR     56  56  99 CALM      30.11F
FALLS CITY     FOG       52  51  97 CALM      30.12S VSB 1/2
NEBRASKA CITY  FOG       54  54 100 SE3       30.12F VSB 3/4
PLATTSMOUTH    CLEAR     56  55  95 SE5       30.12F
$$

NEZ044-045-051>053-067-271100-
OMAHA AREA

CITY           SKY/WX    TMP DP  RH WIND       PRES   REMARKS
OMAHA EPPLEY   CLEAR     57  48  72 CALM      30.12F
BLAIR          CLEAR     56  49  78 CALM      30.12S
FREMONT        CLEAR     54  50  86 CALM      30.12S
MILLARD        CLEAR     55  53  94 CALM      30.12S
OFFUTT AFB     CLEAR     51  49  93 E3        30.11F
PLATTSMOUTH    CLEAR     56  55  95 SE5       30.12F
WAHOO          FAIR      51  47  85 CALM      30.11S
$$




USA.gov is the U.S. government's official web portal to all federal, state and local government web resources and services.